Weather in Santa Cruz

United States     36°58′26″N   122°01′51″W
temp.,
°C
wind,
m/s
gust,
m/s
humid.,
%
clouds,
%
prec.,
mm/h
press.,
hPa
HPBL,
m
16 may, sun
sun1623:00+10ssw129069 0.0 1013232
02:00+10ssw2290100 0.0 1013335
05:00+10s228895 0.0 1014276
08:00+10s2287100 0.1 1015400
11:00+12s227787 0.1 1016535
14:00+15ssw336725 0.0 1015639
17:00+15sw33693 0.0 1014496
20:00+11wsw23845 0.0 1015238
17 may, mon
mon1723:00+10wsw139117 0.0 1016172
02:00+9wsw129056 0.0 1016204
05:00+10wsw128857 0.0 1016292
08:00+11w128056 0.0 1017416
11:00+17sw33561 0.0 1017624
14:00+20wsw5547100 0.0 1016743
17:00+20wnw354672 0.0 1015613
20:00+14nw126378 0.0 101745
18 may, tue
tue1823:00+11nw118119 0.0 101889
02:00+9n11840 0.0 101863
05:00+8ne01891 0.0 101958
08:00+11sse11770 0.0 1019248
11:00+18ssw23454 0.0 1018604
14:00+22wnw67240 0.0 1016907
17:00+21nw77230 0.0 1016673
20:00+13nw58440 0.0 1017268
19 may, wed
wed1923:00+9nw357645 0.0 1019241
02:00+8nnw128294 0.0 1018158
05:00+8nnw24800 0.0 1018273
08:00+10nnw25670 0.0 1018571
11:00+16wnw56360 0.0 1016836
14:00+17wnw88350 0.0 1014915
17:00+15wnw810410 0.0 1014770
20:00+11nw59580 0.0 1015593
20 may, thu
thu2023:00+8nw410773 0.0 1017656
02:00+8nw411770 0.0 1017728
05:00+7nw49740 0.0 1017514
08:00+10nw49580 0.0 1017927
11:00+14wnw710390 0.0 10171261
14:00+15wnw811370 0.0 10161288
17:00+13nw811460 0.0 10151054
20:00+10nw610650 0.0 1016695